Погода в Новосысоевке

Россия / Приморский край     44°14′08″N   133°21′50″E
темп.,
°C
ветер,
м/с
пор.,
м/с
влажн.,
%
обл.,
%
осадки,
мм/ч
давл.,
гПа
погр.,
м
16 июня, ср
ср1601:00+12з119433 0.0 100911
04:00+11ююз11962 0.0 101013
07:00+13юз11915 0.0 1011100
10:00+20зюз12654 0.0 1010544
13:00+24сз12520 0.0 1008903
16:00+26сз11490 0.0 1007869
19:00+24з34670 0.0 1006178
22:00+16зсз11888 0.0 100811
17 июня, чт
чт1701:00+14зюз22940 0.0 100720
04:00+12вюв1196100 0.0 100720
07:00+14юв1292100 0.0 100891
10:00+20юз1367100 0.0 1006539
13:00+25юз2444100 0.0 10041214
16:00+24зсз3554100 0.0 1004825
19:00+20з3671100 0.0 1004225
22:00+16юз1182100 0.0 100411
18 июня, пт
пт1801:00+15вюв1188100 0.0 100312
04:00+13з1195100 0.0 100211
07:00+14юв018994 0.0 100299
10:00+16з2683100 0.3 1001529
13:00+16юз1494100 2.3 1001318
16:00+15св1197100 7.1 100056
19:00+17вюв019297 0.8 1000141
22:00+14всв119695 1.6 100114
19 июня, сб
сб1901:00+14ююв119691 0.1 100127
04:00+12в1196100 0.1 100119
07:00+14в0095100 0.0 100165
10:00+18юз1182100 0.4 1002635
13:00+18вюв238799 4.1 1002604
16:00+20юв237798 7.6 1001870
19:00+17ююв1189100 2.9 100150
22:00+13в2392100 3.4 100485
20 июня, вс
вс2001:00+11св2396100 1.3 100592
04:00+10св2396100 2.0 1005108
07:00+10всв249598 0.1 1006144
10:00+13всв2384100 0.1 1007285
13:00+17св326279 0.0 1007764
16:00+19всв125843 0.0 1006976
19:00+17вюв127751 0.1 1006104
22:00+10вюв118520 0.2 100911